SCP
0 0 0 0 0 0 0 0 0 0 0 0 0 0 0 0 0 0 0 0 0 0 0 0 0 0 0 0 0 1 1 1 1 1 1 2 2 3
0 0 0 0 0 0 0 0 0 0 0 0 0 0 0 0 0 0 0 0 0 0 0 0 0 0 0 0 0 0 1 1 1 1 1 1 2 2
0 0 0 0 0 0 0 0 0 0 0 0 0 0 0 0 0 0 0 0 0 0 0 0 0 0 0 0 0 0 0 1 1 1 1 1 1 1
0 0 0 0 0 0 0 0 0 0 0 0 0 0 0 0 0 0 0 0 0 0 0 0 0 0 0 0 0 0 0 0 0 1 1 1 1 1
0 0 0 0 0 0 0 0 0 0 0 0 0 0 0 0 0 0 0 0 0 0 0 0 0 0 0 0 0 0 0 0 0 0 0 1 1 1
0 0 0 0 0 0 0 0 0 0 0 0 0 0 0 0 0 0 0 0 0 0 0 0 0 0 0 0 0 0 0 0 0 0 0 0 1 1
0 0 0 0 0 0 0 0 0 0 0 0 0 0 0 0 0 0 0 0 0 0 0 0 0 0 0 0 0 0 0 0 0 0 0 0 0 0
0 0 0 0 0 0 0 0 0 0 0 0 0 0 0 0 0 0 0 0 0 0 0 0 0 0 0 0 0 0 0 0 0 0 0 0 0 0
0 0 0 0 0 0 0 0 0 0 0 0 0 0 0 0 0 0 0 0 0 0 0 0 0 0 0 0 0 0 0 0 0 0 0 0 0 0
0 0 0 0 0 0 0 0 0 0 0 0 0 0 0 0 0 0 0 0 0 0 0 0 0 0 0 0 0 0 0 0 0 0 0 0 0 0
0 0 0 0 0 0 0 0 0 0 0 0 0 0 0 0 0 0 0 0 0 0 0 0 0 0 0 0 0 0 0 0 0 0 0 0 0 0
0 0 0 0 0 0 0 0 0 0 0 0 0 0 0 0 0 0 0 0 0 0 0 0 0 0 0 0 0 0 0 0 0 0 0 0 0 0
0 0 0 0 0 0 0 0 0 0 0 0 0 0 0 0 0 0 0 0 0 0 0 0 0 0 0 0 0 0 0 0 0 0 0 0 0 0
0 0 0 0 0 0 0 0 0 0 0 0 0 0 0 0 0 0 0 0 0 0 0 0 0 0 0 0 0 0 0 0 0 0 0 0 0 0
0 0 0 0 0 0 0 0 0 0 0 0 0 0 0 0 0 0 0 0 0 0 0 0 0 0 0 0 0 0 0 0 0 0 0 0 0 0
0 0 0 0 0 0 0 0 0 0 0 0 0 0 0 0 0 0 0 0 0 0 0 0 0 0 0 0 0 0 0 0 0 0 0 0 0 0
0 0 0 0 0 0 0 0 0 0 0 0 0 0 0 0 0 0 0 0 0 0 0 0 0 0 0 0 0 0 0 0 0 0 0 0 0 0
0 0 0 0 0 0 0 0 0 0 0 0 0 0 0 0 0 0 0 0 0 0 0 0 0 0 0 0 0 0 0 0 0 0 0 0 0 0
0 0 0 0 0 0 0 0 0 0 0 0 0 0 0 0 0 0 0 0 0 0 0 0 0 0 0 0 0 0 0 0 0 0 0 0 0 0
0 0 0 0 0 0 0 0 0 0 0 0 0 0 0 0 0 0 0 0 0 0 0 0 0 0 0 0 0 0 0 0 0 0 0 0 0 0
0 0 0 0 0 0 0 0 0 0 0 0 0 0 0 0 0 0 0 0 0 0 0 0 0 0 0 0 0 0 0 0 0 0 0 0 0 0
0 0 0 0 0 0 0 0 0 0 0 0 0 0 0 0 0 0 0 0 0 0 0 0 0 0 0 0 0 0 0 0 0 0 0 0 0 0
0 0 0 0 0 0 0 0 0 0 0 0 0 0 0 0 0 0 0 0 0 0 0 0 0 0 0 0 0 0 0 0 0 0 0 0 0 0
Wind_Speed
4 4 3 3 3 3 3 2 2 1 1 2 2 3 2 2 2 1 2 2 3 3 2 3 3 3 3 3 3 2 2 2 1 3 4 5 6 7
2 4 4 3 3 3 3 3 2 2 1 1 1 1 2 2 2 2 1 2 1 1 1 2 2 3 3 3 4 3 3 3 2 2 3 5 6 6
4 4 4 4 3 3 3 3 3 3 2 2 2 2 2 3 2 2 0 1 1 1 1 0 1 1 2 3 3 3 2 3 3 3 3 4 5 6
4 4 4 4 4 4 3 4 3 2 2 2 2 2 3 2 2 3 2 1 0 2 2 2 2 2 2 2 3 3 3 3 3 4 4 5 6 7
4 5 5 5 4 3 4 4 3 3 2 2 2 2 2 2 2 3 3 2 2 0 2 2 3 3 3 3 3 4 4 3 3 4 5 6 6 7
5 5 5 5 4 4 4 4 4 3 3 2 2 2 2 3 2 2 3 3 3 3 2 1 3 4 5 5 4 4 4 4 4 5 5 6 6 7
4 4 5 5 6 4 3 3 4 3 3 2 2 3 3 3 3 3 3 3 3 2 2 2 2 2 3 5 5 5 5 5 5 6 6 6 7 7
3 3 3 4 4 4 4 4 3 2 2 2 2 3 3 3 3 4 3 3 4 3 3 4 3 2 2 1 3 4 4 5 6 6 7 6 7 8
3 3 3 5 5 4 4 3 3 3 2 1 2 2 2 3 3 4 4 3 4 4 3 4 3 3 3 3 4 4 4 5 6 7 7 7 7 8
3 3 4 5 6 5 4 4 2 2 2 1 1 1 1 2 2 3 4 4 4 3 2 2 3 3 4 3 5 5 5 6 6 7 7 8 8 9
3 4 4 4 6 8 5 4 4 3 3 4 4 4 5 5 3 2 3 3 4 4 3 2 3 4 4 3 3 5 7 8 8 8 9 9 9 9
2 3 5 4 4 6 4 4 4 4 5 5 4 4 4 4 3 1 1 1 3 4 3 3 3 4 4 4 3 4 5 7 8 9 10 9 9 5
1 1 1 2 2 3 3 1 3 4 4 4 4 3 2 2 1 1 0 0 1 3 4 3 3 3 3 5 4 4 4 4 4 5 7 8 9 7
1 1 0 0 2 3 2 4 6 5 3 3 3 3 2 2 2 1 2 2 2 4 5 4 3 3 4 5 5 4 4 4 4 5 4 6 7 8
1 1 3 4 4 3 5 6 5 2 2 2 2 3 3 2 2 2 3 3 3 4 5 4 3 3 3 4 5 5 5 5 4 4 4 4 4 4
2 3 5 6 5 5 5 4 3 2 2 2 3 3 3 2 2 2 2 2 3 4 4 4 3 3 3 4 5 6 5 5 5 5 5 5 5 4
1 1 2 2 2 2 2 2 2 2 2 3 3 3 3 3 3 2 2 2 3 4 4 4 3 3 4 4 5 6 6 5 5 5 5 6 5 5
0 2 3 3 3 3 3 3 3 3 3 3 3 3 3 3 3 3 2 3 4 4 4 4 4 4 4 5 5 6 5 5 5 5 5 6 7 5
2 3 4 3 3 3 3 3 3 3 3 3 3 3 3 3 3 4 4 4 4 4 4 4 3 4 6 8 6 4 5 6 6 6 5 6 7 6
4 4 4 4 4 3 3 3 3 3 3 3 3 3 3 4 4 4 4 4 5 5 5 4 4 4 6 8 8 6 7 7 6 7 6 6 6 8
5 5 5 4 4 4 3 3 3 3 4 3 3 4 3 3 4 4 4 7 6 5 6 6 6 8 6 4 6 7 6 8 9 8 7 7 7 7
5 5 4 4 4 3 3 3 3 4 4 4 4 4 4 4 4 5 5 5 5 6 7 6 6 5 4 6 9 9 9 8 8 11 12 11 7 8
5 5 4 4 4 3 3 4 4 4 4 4 4 4 4 4 4 5 6 6 6 7 7 6 5 5 6 7 8 9 11 9 6 6 7 10 15 17
Wind_Direction
35 41 43 40 36 29 39 55 83 67 19 17 34 26 41 66 28 9 91 86 61 49 50 35 18 6 6 9 0 347 331 316 282 233 220 219 221 223
55 53 42 32 28 27 31 25 42 76 58 357 31 17 19 47 22 13 81 120 78 33 45 30 16 7 1 359 352 333 324 318 297 255 238 234 231 234
49 62 59 45 31 26 23 26 32 50 56 340 352 7 31 32 6 353 276 189 214 212 181 302 341 360 348 338 339 323 318 313 309 288 264 251 246 243
44 51 54 53 42 29 22 23 24 34 53 0 341 1 14 17 2 332 340 5 273 207 210 241 255 281 295 302 315 318 309 303 299 295 278 264 259 257
50 47 42 49 38 26 27 21 12 14 22 18 343 347 357 356 355 337 340 335 330 245 223 240 256 263 271 278 286 298 301 297 295 289 282 274 265 263
65 60 51 50 37 24 26 14 10 8 4 7 355 348 347 342 6 346 344 340 329 340 340 295 254 252 263 272 271 279 287 287 285 287 286 279 271 265
71 76 79 76 62 46 35 15 12 11 5 3 352 355 356 1 356 340 346 331 322 336 349 325 303 280 265 268 268 270 273 280 281 278 281 282 276 270
63 83 97 84 62 44 35 26 20 19 6 359 351 355 346 353 350 350 348 350 326 323 344 315 314 304 288 273 276 274 273 280 283 281 275 275 277 274
39 53 48 61 53 26 4 355 351 343 351 3 353 336 340 349 351 346 341 326 296 295 326 308 314 308 301 308 298 296 292 287 291 291 288 282 280 279
47 58 62 52 35 25 4 355 349 349 323 344 312 305 323 321 323 313 304 309 302 309 331 307 312 310 313 313 308 306 298 295 292 292 288 286 283 278
78 70 72 77 34 23 8 353 354 354 344 336 316 298 298 304 301 340 340 349 328 316 338 340 325 322 312 303 308 315 309 297 293 292 289 287 283 280
101 95 83 79 46 24 9 360 356 342 340 330 318 302 295 297 296 252 280 342 329 316 340 356 331 337 319 309 329 328 312 301 297 295 293 292 294 290
54 80 88 78 47 360 348 332 312 317 319 318 317 316 315 310 303 299 320 311 305 289 303 328 308 308 292 300 310 308 305 304 305 297 289 287 288 281
20 52 123 237 306 302 298 294 309 323 313 311 317 319 318 311 307 319 324 306 271 273 283 288 283 287 293 297 298 304 309 303 297 293 291 293 286 278
247 281 279 268 279 277 266 282 296 297 294 295 293 291 289 288 301 317 316 306 300 293 293 287 280 284 280 283 289 295 303 298 290 294 294 291 287 284
247 271 278 269 264 269 273 271 253 241 243 251 264 273 287 299 295 280 284 296 303 298 294 295 291 289 287 281 281 288 289 286 294 292 290 290 288 283
293 287 279 273 263 259 264 265 259 257 256 258 261 273 281 285 281 276 270 281 282 285 295 299 292 283 270 273 283 282 284 285 285 290 293 292 289 285
193 261 262 259 257 258 261 264 260 256 253 253 255 255 259 266 274 276 270 269 273 276 281 284 296 305 302 287 256 274 282 285 288 289 287 287 287 284
211 242 247 251 254 256 255 254 259 262 260 261 260 261 260 262 267 270 267 268 270 271 272 275 281 288 292 292 284 256 277 289 291 289 283 277 280 281
218 233 240 244 246 251 255 256 261 271 270 266 265 265 263 264 267 268 267 269 274 277 278 274 267 262 266 277 283 279 265 269 278 280 281 278 276 278
228 231 233 236 239 242 249 253 255 260 265 267 267 267 266 266 268 268 270 276 276 277 276 271 262 263 264 277 282 281 274 262 260 267 275 282 287 285
232 233 232 231 232 236 242 248 258 264 267 264 264 264 264 264 271 276 277 277 275 272 275 276 276 276 269 270 275 281 284 283 273 266 259 258 264 270
227 229 230 229 229 230 234 244 253 258 259 264 268 271 274 276 275 275 276 277 278 280 283 284 282 275 271 271 274 278 281 284 284 283 273 263 262 266